Temperature
18 18 18 18 18 18 18 18 18 18 18 18 18 18 18 18 18 18 18 18 18 18 18 17 17 17 17 17 17 17 17 16 16 16 16 16 16 16 16 16 16 16 16
18 18 18 18 18 18 18 18 18 18 18 18 18 18 18 18 18 18 18 18 18 18 18 17 17 17 17 17 17 17 17 17 16 16 16 16 16 16 16 16 16 16 16
18 18 18 18 18 18 18 18 18 18 18 18 18 18 18 18 18 18 18 18 18 18 18 17 17 17 17 17 17 17 17 17 17 17 16 16 16 16 16 16 16 16 16
18 18 18 18 18 18 18 18 18 18 18 18 18 18 18 18 18 18 18 18 18 18 17 17 17 17 17 17 17 17 17 17 17 16 16 16 16 16 16 16 16 16 16
18 18 18 18 18 18 18 18 18 18 18 18 18 18 18 18 18 18 18 18 18 18 17 17 17 17 17 17 17 17 17 16 16 16 16 16 16 16 16 16 16 16 15
18 18 18 18 18 18 18 18 18 18 18 18 18 18 18 18 18 18 18 18 18 17 17 17 17 17 17 17 17 16 16 16 16 16 16 16 16 16 16 16 15 15 15
18 18 18 18 18 18 18 18 18 18 18 18 18 18 18 18 18 18 18 18 17 17 17 17 17 17 17 17 17 16 16 16 16 16 16 16 16 16 16 16 15 15 15
18 18 18 18 18 18 18 18 18 18 18 18 18 18 17 18 18 17 17 17 17 17 17 17 17 17 17 17 16 16 16 16 16 16 16 16 16 16 16 15 15 15 15
18 18 18 18 18 18 18 18 18 18 18 18 17 17 17 17 17 17 17 17 17 17 17 17 17 16 16 16 16 16 16 16 16 16 16 16 16 15 15 15 15 15 15
18 18 18 18 18 18 18 18 18 18 18 18 17 17 17 17 17 17 17 17 17 16 16 16 16 16 16 16 16 16 16 15 15 15 15 15 15 15 15 15 15 15 15
18 18 18 18 18 18 18 18 18 18 17 17 17 17 17 17 17 16 16 16 16 16 16 16 16 16 16 16 15 15 15 15 15 15 15 15 15 15 15 15 14 14 14
18 18 18 18 18 18 18 18 18 17 17 17 17 17 17 17 17 16 16 16 16 16 15 15 15 15 15 15 15 15 15 15 15 15 15 15 15 14 14 14 14 14 14
18 18 18 18 18 18 18 17 17 17 17 17 17 17 17 16 16 16 16 16 15 15 15 15 15 15 15 15 15 15 15 15 15 14 14 14 14 14 14 14 14 14 13
18 17 17 17 17 17 17 17 17 17 17 17 17 16 16 16 16 16 16 15 15 15 14 14 14 14 14 14 14 14 14 14 14 14 14 14 14 14 14 13 13 13 13
17 17 17 17 17 17 17 17 17 17 17 17 16 16 16 16 16 16 16 15 15 14 14 14 14 13 13 14 14 14 14 13 13 13 13 13 13 13 13 13 13 13 13
17 17 17 17 17 17 17 17 17 16 16 16 16 16 16 16 16 15 15 15 15 15 14 13 13 13 13 13 13 13 13 13 13 13 13 13 13 13 13 12 12 12 12
17 17 17 17 17 17 17 16 16 16 16 16 16 16 16 16 15 15 15 15 15 15 14 13 13 13 13 13 13 13 12 12 12 12 12 12 12 12 12 12 12 11 11
17 17 16 16 16 16 16 16 16 16 16 16 15 15 15 15 15 15 15 15 14 14 14 13 13 12 12 12 12 12 12 12 12 11 11 11 11 11 11 11 11 11 11
17 16 16 16 16 16 16 16 16 16 15 15 15 15 15 15 15 15 14 14 14 14 14 13 13 12 12 12 12 11 11 11 11 11 11 11 11 11 10 10 10 10 10
16 16 16 16 16 16 15 15 15 15 15 15 14 14 14 14 14 14 14 14 14 13 13 13 12 12 12 12 11 11 11 11 11 10 10 10 10 10 10 10 10 10 10
16 16 16 16 15 15 15 15 15 15 14 14 14 14 14 14 14 14 13 13 13 13 13 13 12 12 12 12 11 11 11 10 10 10 10 10 10 10 10 9 9 9 9
16 16 15 15 15 15 15 15 14 14 14 14 14 14 13 13 13 13 13 13 13 13 12 12 12 12 12 11 11 11 11 10 10 10 10 9 9 9 9 9 9 9 9
16 15 15 15 15 15 15 14 14 14 14 14 14 13 13 13 13 13 12 12 12 12 12 12 12 12 11 11 11 11 10 10 10 10 10 9 9 9 9 9 8 8 8
15 15 15 15 15 14 14 14 14 14 13 13 13 13 13 13 12 12 12 12 12 12 11 11 11 11 11 11 11 11 10 10 10 9 9 9 9 9 8 8 8 8 8
15 15 15 14 14 14 14 14 13 13 13 13 13 12 12 12 12 12 12 12 11 11 11 11 11 11 11 10 10 10 10 10 9 9 9 9 9 8 8 8 8 8 7
15 14 14 14 14 14 13 13 13 13 13 13 12 12 12 12 11 11 11 11 11 11 11 11 10 10 10 10 10 10 10 10 9 9 9 9 9 8 8 8 8 8 7
Wind_Speed
4 4 3 4 4 4 4 4 3 3 3 4 3 4 6 9 11 12 13 16 15 15 14 14 13 13 13 12 12 12 12 12 11 11 11 11 11 10 9 9 9 9 9
5 3 2 3 3 5 5 4 4 3 2 2 1 3 6 9 11 12 12 14 16 15 15 14 14 14 14 13 13 12 12 12 12 12 13 13 12 11 11 11 10 10 10
6 4 2 2 3 5 5 3 3 2 2 2 1 2 4 7 9 11 12 12 13 15 16 16 15 15 15 14 14 13 13 13 13 12 13 13 13 12 12 12 12 12 11
6 4 2 2 3 3 3 2 2 1 1 1 1 2 2 4 7 9 11 12 12 12 14 16 16 16 15 15 15 14 14 14 13 13 13 13 13 13 12 12 12 13 13
5 4 2 2 2 2 1 2 2 2 2 2 2 2 2 2 4 7 7 10 11 12 12 13 16 16 16 16 16 16 15 15 14 14 14 14 14 14 14 14 13 13 14
4 3 2 2 2 1 1 1 1 1 2 2 1 1 2 2 3 4 6 7 9 11 12 12 13 14 15 15 15 15 15 15 14 14 14 14 14 14 15 14 14 14 14
4 3 1 1 1 1 2 1 1 1 1 1 1 2 2 2 2 2 3 3 5 8 10 10 10 10 10 13 15 14 13 13 13 12 12 12 13 13 13 13 14 14 14
4 3 3 2 2 2 1 1 1 1 1 1 2 1 1 3 2 1 1 2 3 3 4 7 8 8 8 8 9 12 12 12 11 11 11 11 11 11 12 12 13 13 13
4 2 2 2 2 2 2 2 2 3 2 1 2 3 2 2 2 2 0 1 1 1 2 3 4 5 7 7 7 8 10 10 10 9 9 10 11 11 11 11 11 11 11
2 2 2 2 2 2 2 2 2 2 3 2 1 1 2 3 2 1 2 1 1 1 1 1 2 3 3 4 4 5 6 7 7 8 8 8 8 9 9 10 10 10 10
0 1 2 2 1 1 1 1 1 1 2 2 2 1 1 1 2 2 1 1 1 1 2 2 3 3 2 2 3 3 2 4 4 5 5 6 6 6 7 7 9 9 9
1 1 1 1 1 1 1 1 1 1 2 2 2 2 2 2 2 2 2 1 0 0 2 2 3 3 3 3 4 4 4 3 2 1 0 1 2 3 3 4 5 6 6
1 1 1 1 1 1 1 1 1 1 1 2 1 1 1 2 2 3 3 2 1 0 1 3 3 4 5 6 6 8 8 8 8 7 6 4 3 1 1 2 2 2 4
1 1 1 1 1 2 2 2 2 1 2 2 1 1 1 0 1 2 3 3 2 1 2 2 2 4 6 7 8 9 10 11 11 10 10 9 8 7 5 4 4 3 2
1 2 2 2 3 3 2 3 3 2 3 2 2 2 1 0 0 1 2 3 4 2 1 1 1 2 5 7 8 9 10 12 12 12 11 11 11 11 10 9 8 7 6
2 3 3 3 4 4 3 4 3 3 4 3 3 3 2 1 1 1 1 1 2 4 2 1 1 1 4 7 9 10 11 12 13 13 13 13 13 13 13 12 11 11 10
4 4 4 4 5 4 4 4 4 4 5 4 4 4 3 2 2 2 2 2 3 4 5 2 2 3 4 5 7 9 9 9 10 12 13 13 13 13 13 13 12 12 11
4 4 4 4 4 5 4 5 5 5 5 5 4 4 4 3 4 3 3 3 3 4 5 5 2 2 3 4 5 5 7 8 9 11 11 11 12 12 12 12 12 12 12
5 4 5 5 5 5 5 5 5 5 4 4 4 4 4 5 5 4 4 4 4 4 4 5 3 2 3 3 4 5 6 5 7 8 9 10 10 11 11 11 12 12 12
6 6 6 5 5 5 5 5 5 5 5 5 5 5 4 5 4 4 4 5 5 6 5 5 4 3 3 2 4 4 4 3 3 5 6 8 9 10 10 10 10 11 11
7 6 6 6 5 5 4 5 5 5 5 5 5 5 5 7 7 5 4 4 6 5 5 5 4 3 3 3 2 2 3 3 2 2 2 3 5 5 6 7 7 8 9
6 6 6 6 6 4 6 7 6 5 4 5 4 4 5 6 8 9 9 8 7 6 5 4 3 4 3 2 2 3 3 3 1 0 2 1 2 2 3 4 5 6 7
6 6 5 6 5 5 7 7 8 5 5 4 4 4 4 5 5 5 8 10 9 9 7 6 5 3 3 3 4 4 3 3 2 1 2 1 1 1 2 2 3 4 5
5 5 5 5 5 5 7 7 8 6 5 5 4 4 4 4 4 5 6 6 6 5 5 4 4 3 3 4 4 5 5 3 3 2 2 1 0 1 1 1 1 2 3
5 4 4 4 5 4 6 7 7 5 5 5 4 4 4 4 6 7 7 6 5 4 6 8 7 6 6 7 7 5 4 4 2 0 0 2 1 0 1 2 2 1 0
5 5 4 3 3 3 4 7 7 5 5 4 3 4 5 5 6 7 6 5 5 2 3 4 5 5 5 5 6 5 5 4 3 1 1 2 1 1 0 2 2 3 3
Wind_Direction
165 177 193 198 203 204 195 199 223 247 258 260 235 168 158 167 164 168 176 179 180 181 182 183 185 185 185 186 187 190 191 192 194 195 192 192 193 196 197 197 198 195 194
167 169 183 196 204 205 200 199 210 227 245 244 216 165 164 171 174 175 180 185 188 190 190 191 193 195 194 194 196 197 199 199 200 201 201 202 201 204 207 208 208 207 206
167 171 178 201 210 206 197 200 209 219 238 237 209 177 170 176 178 180 183 187 193 199 199 199 200 202 203 203 203 206 208 208 206 206 206 208 209 210 212 213 212 212 212
171 166 170 210 215 204 196 198 195 188 234 225 221 216 182 180 182 185 188 191 194 202 207 207 207 207 208 209 210 211 214 215 213 211 209 210 212 212 214 216 216 216 216
170 165 177 214 215 195 199 210 183 178 205 228 224 221 207 192 190 191 190 193 196 201 205 213 216 214 215 216 215 215 217 219 218 218 216 215 216 217 219 220 220 219 219
175 169 190 218 193 142 201 201 192 189 192 205 219 244 246 227 204 196 194 192 196 201 205 211 216 220 222 223 223 223 222 221 220 220 219 219 221 221 222 224 225 223 223
174 168 181 191 166 172 214 201 172 175 222 147 76 344 330 296 234 207 182 175 190 199 200 204 206 212 222 228 229 230 229 226 223 219 218 220 222 223 223 225 225 225 226
181 181 182 182 183 184 205 211 171 171 238 154 140 120 340 335 328 251 164 180 195 190 187 197 202 206 211 216 220 225 230 228 227 220 216 216 221 225 227 229 228 227 228
181 180 169 169 177 177 200 221 198 182 209 244 161 150 163 232 292 334 355 131 141 151 172 177 194 206 211 217 224 226 225 224 224 226 223 221 222 224 227 229 230 231 231
191 184 178 171 173 179 199 220 188 180 170 207 241 199 183 172 169 284 342 51 93 109 129 141 163 180 189 199 196 202 210 217 222 228 228 225 226 226 227 231 233 234 237
234 199 191 180 184 187 203 216 183 161 167 178 191 196 177 169 156 164 237 314 27 50 91 95 92 101 111 129 146 153 179 207 216 228 234 234 235 238 238 241 243 239 237
296 280 177 169 185 182 188 188 164 145 158 165 176 165 161 173 185 165 194 212 202 15 66 72 74 77 85 85 98 98 94 96 101 101 146 221 230 239 252 263 255 247 244
255 255 201 177 179 179 151 137 116 113 131 138 158 161 155 183 166 154 156 175 172 148 61 50 50 68 77 76 78 80 78 76 70 65 60 59 59 62 52 13 334 292 262
221 213 133 108 80 80 88 79 79 89 87 95 89 100 113 171 157 159 159 153 144 81 57 59 48 61 79 78 77 85 79 79 77 73 68 65 64 63 64 57 46 35 18
128 83 80 73 67 76 79 81 77 69 74 73 64 64 72 24 76 168 158 160 155 160 137 66 77 58 86 89 86 88 89 85 84 80 76 72 68 66 65 63 60 56 53
74 76 78 78 72 66 67 75 71 63 67 55 60 60 51 36 44 66 130 140 143 150 144 103 93 98 103 100 93 88 89 87 84 83 81 77 73 69 66 64 61 58 57
76 73 78 77 71 67 71 77 72 68 69 56 49 55 41 46 65 56 74 97 110 121 128 111 72 74 92 98 94 88 86 86 83 81 80 78 75 73 69 64 61 57 55
83 85 80 76 71 67 71 82 79 68 68 62 50 52 39 55 57 56 78 93 106 112 128 127 105 77 86 115 111 102 93 88 85 81 81 78 75 73 69 65 61 58 54
91 81 81 78 70 66 72 79 80 74 69 63 56 62 53 64 60 59 73 88 98 105 106 122 114 86 79 100 103 96 93 86 88 83 79 74 72 71 67 64 64 61 57
96 85 78 76 71 67 68 77 81 76 71 63 57 60 60 67 69 66 79 86 97 97 99 107 104 89 81 86 103 106 96 74 81 83 79 73 67 64 63 63 64 62 59
98 90 84 73 65 66 68 81 86 85 77 67 58 54 61 73 76 75 92 98 105 105 106 109 108 99 96 107 121 123 116 104 69 69 70 59 57 49 45 53 63 65 62
92 87 82 80 69 68 76 84 94 86 81 80 74 62 61 57 65 70 77 86 106 118 122 117 114 123 135 135 133 130 125 121 97 355 96 51 62 40 21 39 59 67 66
100 93 84 80 73 65 75 85 92 95 82 80 80 73 72 57 58 74 77 75 72 85 110 130 129 140 153 171 153 135 136 132 149 184 116 57 5 5 334 25 60 73 71
110 105 96 86 75 62 74 89 94 88 82 73 74 84 83 58 62 90 94 79 67 59 81 104 135 154 159 166 161 159 158 129 86 69 105 124 286 298 330 335 55 81 73
115 113 111 98 85 59 73 96 100 96 87 71 62 70 84 75 71 89 93 89 75 53 68 83 91 97 115 128 131 118 113 117 110 292 85 128 182 221 313 294 274 249 139
127 123 111 107 105 83 84 108 114 110 101 86 59 52 66 82 85 90 98 103 97 67 61 60 55 54 66 89 117 138 149 143 142 197 230 140 164 120 340 292 272 261 262
Height
1562 1562 1563 1563 1564 1564 1565 1566 1566 1566 1566 1566 1567 1567 1567 1568 1568 1568 1568 1568 1569 1569 1569 1570 1570 1571 1571 1572 1572 1573 1574 1574 1575 1575 1576 1576 1577 1578 1578 1578 1579 1580 1580
1562 1562 1563 1563 1564 1564 1565 1565 1566 1566 1566 1566 1566 1566 1567 1567 1568 1568 1568 1568 1568 1569 1569 1569 1570 1570 1570 1571 1571 1572 1573 1573 1574 1574 1575 1575 1576 1576 1577 1577 1578 1578 1579
1562 1562 1562 1563 1563 1564 1564 1565 1565 1565 1566 1566 1566 1566 1566 1566 1567 1567 1567 1567 1568 1568 1568 1569 1569 1569 1570 1570 1570 1571 1571 1572 1572 1573 1573 1574 1574 1575 1575 1576 1576 1576 1577
1561 1561 1562 1562 1563 1563 1563 1564 1564 1564 1565 1565 1565 1565 1565 1565 1565 1566 1566 1566 1566 1567 1567 1567 1568 1568 1568 1569 1569 1569 1570 1570 1571 1571 1571 1572 1572 1573 1573 1574 1574 1574 1575
1560 1560 1561 1561 1562 1562 1562 1563 1563 1563 1563 1563 1563 1564 1564 1564 1564 1564 1564 1564 1565 1565 1565 1566 1566 1566 1567 1567 1567 1567 1568 1568 1568 1569 1569 1569 1570 1570 1571 1571 1571 1572 1572
1559 1560 1560 1560 1560 1561 1561 1561 1561 1562 1562 1562 1562 1562 1562 1562 1562 1562 1562 1562 1562 1563 1563 1563 1564 1564 1565 1565 1565 1565 1566 1566 1566 1566 1566 1567 1567 1567 1568 1568 1568 1568 1569
1559 1559 1559 1559 1559 1559 1559 1559 1560 1560 1560 1560 1560 1560 1560 1560 1560 1560 1560 1560 1560 1561 1561 1561 1562 1562 1562 1563 1563 1563 1563 1563 1563 1563 1563 1564 1564 1564 1564 1565 1565 1565 1565
1558 1558 1558 1558 1558 1558 1558 1558 1558 1558 1558 1558 1558 1558 1558 1559 1558 1558 1558 1558 1558 1559 1559 1559 1559 1559 1559 1560 1560 1560 1560 1561 1561 1560 1560 1560 1561 1561 1561 1561 1561 1561 1562
1556 1556 1556 1556 1556 1556 1556 1556 1556 1556 1556 1556 1556 1557 1556 1555 1556 1556 1556 1556 1556 1556 1556 1556 1556 1556 1557 1557 1557 1557 1557 1558 1558 1558 1557 1558 1558 1558 1558 1558 1558 1558 1558
1555 1555 1555 1555 1554 1554 1554 1554 1554 1554 1554 1553 1554 1553 1554 1554 1554 1553 1554 1554 1554 1554 1554 1554 1554 1554 1554 1554 1554 1555 1555 1555 1555 1555 1555 1555 1555 1554 1554 1554 1554 1554 1554
1554 1554 1553 1553 1553 1553 1552 1552 1552 1551 1551 1551 1551 1551 1551 1551 1551 1551 1551 1552 1552 1552 1552 1552 1552 1551 1552 1552 1552 1552 1552 1552 1552 1552 1551 1551 1551 1551 1551 1550 1550 1550 1550
1552 1552 1552 1551 1551 1551 1550 1550 1550 1549 1549 1548 1548 1548 1548 1548 1548 1548 1548 1549 1550 1551 1551 1550 1550 1550 1550 1550 1550 1550 1550 1549 1549 1549 1548 1548 1548 1547 1547 1547 1546 1546 1546
1551 1551 1550 1550 1549 1549 1548 1548 1548 1547 1547 1546 1546 1546 1545 1546 1546 1546 1546 1547 1548 1549 1549 1549 1549 1548 1549 1548 1548 1547 1547 1547 1547 1546 1546 1545 1545 1545 1544 1543 1543 1543 1542
1549 1549 1549 1549 1548 1547 1547 1546 1546 1545 1544 1544 1544 1544 1543 1544 1544 1544 1544 1545 1546 1547 1547 1548 1548 1547 1547 1547 1547 1546 1546 1545 1545 1544 1543 1543 1543 1542 1542 1541 1540 1540 1539
1548 1548 1548 1547 1547 1546 1545 1545 1544 1543 1543 1542 1542 1542 1542 1542 1542 1542 1542 1543 1544 1544 1546 1546 1547 1547 1546 1546 1546 1546 1545 1544 1544 1543 1542 1542 1541 1541 1540 1539 1539 1538 1537
1547 1547 1546 1546 1546 1545 1544 1544 1543 1542 1542 1541 1541 1541 1540 1540 1540 1540 1541 1541 1542 1543 1543 1545 1545 1546 1546 1546 1546 1545 1545 1544 1544 1543 1543 1542 1541 1540 1539 1538 1537 1536 1535
1547 1546 1546 1545 1545 1544 1544 1543 1542 1542 1541 1540 1540 1539 1539 1539 1539 1539 1539 1540 1540 1541 1541 1544 1545 1545 1546 1546 1546 1546 1545 1545 1544 1544 1543 1542 1541 1540 1539 1538 1537 1536 1535
1546 1546 1545 1545 1544 1544 1543 1542 1542 1541 1540 1540 1539 1539 1538 1538 1538 1538 1538 1539 1539 1540 1541 1542 1544 1545 1545 1545 1546 1546 1546 1545 1545 1545 1544 1543 1542 1541 1540 1538 1537 1536 1534
1546 1546 1545 1544 1544 1543 1543 1542 1542 1541 1540 1539 1539 1539 1538 1538 1538 1538 1538 1538 1539 1540 1541 1542 1543 1544 1545 1545 1546 1546 1546 1546 1546 1545 1545 1544 1543 1542 1540 1539 1538 1536 1535
1546 1546 1545 1545 1544 1544 1543 1543 1542 1541 1540 1540 1539 1539 1538 1538 1538 1538 1538 1539 1539 1540 1541 1542 1543 1544 1545 1545 1546 1546 1545 1546 1546 1546 1545 1545 1544 1543 1541 1540 1539 1537 1535
1546 1546 1545 1545 1545 1544 1544 1543 1542 1542 1541 1540 1540 1539 1539 1539 1539 1539 1539 1539 1540 1540 1541 1542 1543 1544 1544 1545 1545 1546 1546 1546 1546 1546 1546 1545 1545 1544 1542 1541 1540 1538 1537
1546 1546 1546 1545 1545 1544 1544 1544 1543 1542 1541 1541 1540 1540 1540 1540 1540 1540 1540 1540 1541 1541 1542 1542 1543 1543 1544 1545 1545 1546 1546 1546 1546 1547 1547 1546 1546 1544 1544 1542 1541 1540 1538
1546 1546 1546 1546 1545 1545 1545 1544 1544 1543 1542 1542 1541 1541 1540 1540 1540 1540 1541 1541 1541 1542 1543 1543 1543 1544 1544 1545 1545 1546 1546 1546 1546 1547 1547 1546 1546 1545 1544 1543 1542 1541 1539
1546 1546 1546 1546 1545 1545 1545 1545 1544 1544 1543 1542 1542 1542 1542 1541 1541 1541 1541 1541 1542 1543 1543 1544 1544 1544 1545 1545 1546 1546 1546 1547 1547 1547 1547 1547 1546 1546 1545 1544 1543 1542 1540
1545 1546 1546 1546 1545 1545 1545 1545 1545 1544 1544 1543 1543 1543 1543 1543 1543 1543 1543 1543 1543 1544 1544 1545 1545 1545 1546 1546 1546 1546 1547 1547 1547 1547 1547 1547 1546 1546 1545 1545 1544 1543 1541
1545 1546 1546 1546 1545 1545 1545 1545 1545 1545 1544 1544 1544 1544 1544 1544 1544 1545 1545 1544 1544 1545 1546 1546 1546 1546 1546 1547 1547 1547 1547 1547 1546 1547 1547 1546 1546 1545 1545 1545 1544 1543 1542